TimeCST,TemperatureF,Dew PointF,Humidity,Sea Level PressureIn,VisibilityMPH,Wind Direction,Wind SpeedMPH,Gust SpeedMPH,PrecipitationIn,Events,Conditions,WindDirDegrees,DateUTC
12:14 AM,1.4,-11.2,56,30.33,10.0,Calm,Calm,-,N/A,,Clear,0,2013-03-02 06:14:00
12:34 AM,-0.4,-9.4,66,30.33,10.0,Calm,Calm,-,N/A,,Clear,0,2013-03-02 06:34:00
12:54 AM,-0.4,-9.4,66,30.33,10.0,Calm,Calm,-,N/A,,Clear,0,2013-03-02 06:54:00
1:14 AM,-0.4,-9.4,66,30.33,10.0,Calm,Calm,-,N/A,,Clear,0,2013-03-02 07:14:00
1:34 AM,1.4,-9.4,61,30.32,10.0,Calm,Calm,-,N/A,,Clear,0,2013-03-02 07:34:00
1:54 AM,1.4,-9.4,61,30.31,10.0,SE,3.5,-,N/A,,Clear,130,2013-03-02 07:54:00
2:14 AM,1.4,-9.4,61,30.31,10.0,SE,5.8,-,N/A,,Clear,130,2013-03-02 08:14:00
2:34 AM,-2.2,-14.8,55,30.31,10.0,SE,5.8,-,N/A,,Clear,140,2013-03-02 08:34:00
2:54 AM,-7.6,-16.6,65,30.30,10.0,SE,4.6,-,N/A,,Clear,140,2013-03-02 08:54:00
3:14 AM,-2.2,-13.0,60,30.30,10.0,Calm,Calm,-,N/A,,Clear,0,2013-03-02 09:14:00
3:34 AM,-5.8,-14.8,65,30.30,10.0,SSE,3.5,-,N/A,,Clear,150,2013-03-02 09:34:00
3:54 AM,-5.8,-14.8,65,30.29,10.0,Calm,Calm,-,N/A,,Clear,0,2013-03-02 09:54:00
4:14 AM,-7.6,-16.6,65,30.29,10.0,East,3.5,-,N/A,,Clear,90,2013-03-02 10:14:00
4:34 AM,-7.6,-16.6,65,30.28,10.0,SE,3.5,-,N/A,,Clear,130,2013-03-02 10:34:00
4:54 AM,-7.6,-16.6,65,30.28,10.0,ESE,3.5,-,N/A,,Clear,120,2013-03-02 10:54:00
5:14 AM,-7.6,-16.6,65,30.29,10.0,ESE,3.5,-,N/A,,Clear,120,2013-03-02 11:14:00
5:34 AM,-9.4,-18.4,65,30.28,10.0,SE,3.5,-,N/A,,Clear,140,2013-03-02 11:34:00
5:54 AM,-9.4,-16.6,71,30.27,10.0,SE,3.5,-,N/A,,Clear,130,2013-03-02 11:54:00
6:34 AM,-9.4,-16.6,71,30.27,10.0,Calm,Calm,-,N/A,,Clear,0,2013-03-02 12:34:00
6:54 AM,-9.4,-18.4,65,30.27,10.0,Calm,Calm,-,N/A,,Clear,0,2013-03-02 12:54:00
7:14 AM,-9.4,-16.6,71,30.26,10.0,SSE,3.5,-,N/A,,Clear,150,2013-03-02 13:14:00
7:34 AM,-9.4,-18.4,65,30.26,10.0,Calm,Calm,-,N/A,,Clear,0,2013-03-02 13:34:00
7:54 AM,-9.4,-16.6,71,30.26,10.0,SE,3.5,-,N/A,,Clear,140,2013-03-02 13:54:00
8:15 AM,-7.6,-16.6,65,30.25,10.0,SSE,3.5,-,N/A,,Clear,150,2013-03-02 14:15:00
8:34 AM,-7.6,-14.8,71,30.25,10.0,Calm,Calm,-,N/A,,Clear,0,2013-03-02 14:34:00
8:54 AM,-2.2,-11.2,66,30.24,10.0,SE,4.6,-,N/A,,Scattered Clouds,140,2013-03-02 14:54:00
9:14 AM,3.2,-5.8,66,30.24,10.0,SSE,5.8,-,N/A,,Clear,150,2013-03-02 15:14:00
9:34 AM,10.4,1.4,67,30.24,10.0,SSE,4.6,-,N/A,,Clear,150,2013-03-02 15:34:00
9:54 AM,12.2,3.2,67,30.23,10.0,SE,5.8,-,N/A,,Clear,140,2013-03-02 15:54:00
10:14 AM,15.8,5.0,62,30.23,10.0,South,6.9,-,N/A,,Scattered Clouds,170,2013-03-02 16:14:00
10:34 AM,17.6,8.6,68,30.23,10.0,SSE,5.8,-,N/A,,Mostly Cloudy,160,2013-03-02 16:34:00
10:54 AM,19.4,8.6,63,30.22,10.0,SSE,6.9,-,N/A,,Mostly Cloudy,150,2013-03-02 16:54:00
11:14 AM,19.4,10.4,68,30.22,10.0,SSE,9.2,-,N/A,,Mostly Cloudy,150,2013-03-02 17:14:00
11:34 AM,21.2,12.2,68,30.20,10.0,SSE,9.2,-,N/A,,Scattered Clouds,160,2013-03-02 17:34:00
11:54 AM,23.0,12.2,63,30.21,10.0,SSE,6.9,-,N/A,,Scattered Clouds,150,2013-03-02 17:54:00
12:14 PM,24.8,14.0,64,30.21,10.0,SSE,5.8,-,N/A,,Scattered Clouds,150,2013-03-02 18:14:00
12:34 PM,24.8,15.8,69,30.21,10.0,SSE,6.9,-,N/A,,Clear,150,2013-03-02 18:34:00
12:54 PM,24.8,15.8,69,30.20,10.0,South,9.2,-,N/A,,Clear,170,2013-03-02 18:54:00
1:14 PM,26.6,15.8,64,30.20,10.0,South,11.5,-,N/A,,Clear,180,2013-03-02 19:14:00
1:34 PM,26.6,15.8,64,30.19,10.0,South,10.4,-,N/A,,Clear,190,2013-03-02 19:34:00
1:54 PM,26.6,15.8,64,30.19,10.0,South,9.2,-,N/A,,Scattered Clouds,190,2013-03-02 19:54:00
2:14 PM,26.6,15.8,64,30.18,10.0,South,10.4,-,N/A,,Scattered Clouds,180,2013-03-02 20:14:00
2:34 PM,26.6,15.8,64,30.15,10.0,South,16.1,-,N/A,,Scattered Clouds,180,2013-03-02 20:34:00
2:54 PM,26.6,15.8,64,30.15,10.0,South,12.7,-,N/A,,Mostly Cloudy,180,2013-03-02 20:54:00
3:14 PM,26.6,15.8,64,30.15,10.0,South,13.8,-,N/A,,Overcast,180,2013-03-02 21:14:00
3:34 PM,26.6,15.8,64,30.14,10.0,South,13.8,-,N/A,,Mostly Cloudy,180,2013-03-02 21:34:00
3:54 PM,26.6,15.8,64,30.14,10.0,South,11.5,-,N/A,,Mostly Cloudy,180,2013-03-02 21:54:00
4:14 PM,26.6,15.8,64,30.14,10.0,South,9.2,-,N/A,,Mostly Cloudy,190,2013-03-02 22:14:00
4:34 PM,26.6,14.0,59,30.13,10.0,South,11.5,-,N/A,,Mostly Cloudy,190,2013-03-02 22:34:00
4:54 PM,26.6,15.8,64,30.13,10.0,South,6.9,-,N/A,,Overcast,190,2013-03-02 22:54:00
5:14 PM,26.6,14.0,59,30.14,10.0,SSW,8.1,-,N/A,,Overcast,200,2013-03-02 23:14:00
5:34 PM,26.6,14.0,59,30.13,10.0,SSW,4.6,-,N/A,,Overcast,200,2013-03-02 23:34:00
5:54 PM,26.6,15.8,64,30.13,10.0,South,5.8,-,N/A,,Overcast,190,2013-03-02 23:54:00
6:14 PM,24.8,17.6,74,30.13,10.0,South,5.8,-,N/A,,Overcast,180,2013-03-03 00:14:00
6:34 PM,24.8,15.8,69,30.12,10.0,SSE,5.8,-,N/A,,Overcast,160,2013-03-03 00:34:00
6:54 PM,26.6,15.8,64,30.12,10.0,SSE,5.8,-,N/A,,Overcast,150,2013-03-03 00:54:00
7:14 PM,24.8,15.8,69,30.12,10.0,SSE,3.5,-,N/A,,Overcast,150,2013-03-03 01:14:00
7:34 PM,24.8,15.8,69,30.12,10.0,Calm,Calm,-,N/A,,Overcast,0,2013-03-03 01:34:00
7:54 PM,24.8,15.8,69,30.12,10.0,Calm,Calm,-,N/A,,Overcast,0,2013-03-03 01:54:00
8:14 PM,26.6,15.8,64,30.11,10.0,Calm,Calm,-,N/A,,Overcast,0,2013-03-03 02:14:00
8:34 PM,24.8,17.6,74,30.10,10.0,SE,3.5,-,N/A,,Overcast,140,2013-03-03 02:34:00
8:54 PM,24.8,17.6,74,30.10,10.0,Calm,Calm,-,N/A,,Overcast,0,2013-03-03 02:54:00
9:14 PM,24.8,15.8,69,30.10,10.0,Calm,Calm,-,N/A,,Overcast,0,2013-03-03 03:14:00
9:34 PM,26.6,15.8,64,30.10,10.0,Calm,Calm,-,N/A,,Overcast,0,2013-03-03 03:34:00
9:54 PM,24.8,15.8,69,30.10,10.0,Calm,Calm,-,N/A,,Overcast,0,2013-03-03 03:54:00
10:15 PM,23.0,17.6,80,30.10,10.0,Calm,Calm,-,N/A,,Overcast,0,2013-03-03 04:15:00
10:34 PM,23.0,17.6,80,30.09,10.0,Calm,Calm,-,N/A,,Overcast,0,2013-03-03 04:34:00
10:54 PM,23.0,15.8,74,30.09,10.0,Calm,Calm,-,N/A,,Overcast,0,2013-03-03 04:54:00
11:15 PM,24.8,15.8,69,30.08,10.0,Calm,Calm,-,N/A,,Overcast,0,2013-03-03 05:15:00
11:34 PM,24.8,15.8,69,30.07,10.0,SE,3.5,-,N/A,,Overcast,130,2013-03-03 05:34:00
11:54 PM,24.8,15.8,69,30.07,10.0,SE,3.5,-,N/A,,Overcast,140,2013-03-03 05:54:00